Regional Weather Roundup
Issued by NWS

Home | Current Version | Previous Version | Graphics & Text | Print | Product List | Glossary On
Versions: 1 2 3 4 5 6 7 8 9 10 11 12 13 14 15 16 17 18 19 20 21 22 23 24 25 26 27 28 29 30 31 32 33 34 35 36 37 38 39 40 41 42 43 44 45 46 47 48 49 50
000
ASUS45 KBOI 021310
RWRID

IDAHO REGIONAL WEATHER ROUNDUP
NATIONAL WEATHER SERVICE BOISE ID
700 AM MDT MON MAY 02 2016

NOTE: "FAIR" INDICATES FEW OR NO CLOUDS BELOW 12000 FEET
WITH NO SIGNIFICANT WEATHER AND/OR OBSTRUCTIONS TO VISIBILITY

IDZ012-014-021400-
SOUTHWEST IDAHO


CITY           SKY/WX    TMP DP  RH WIND       PRES   REMARKS
BOISE          CLEAR     48  36  63 SE5       30.12R
CALDWELL       CLEAR     42  35  76 CALM      30.13R
MOUNTAIN HOME  CLEAR     39  33  78 E3        30.14R
$$

IDZ016-017-021400-
SOUTHCENTRAL IDAHO


CITY           SKY/WX    TMP DP  RH WIND       PRES   REMARKS
BURLEY         CLEAR     33  32  96 CALM      30.18R
JEROME         CLEAR     39  30  70 E7        30.17R WCI  34
TWIN FALLS     CLEAR     39  27  62 S10       30.17R WCI  32
$$

IDZ019>023-021400-
SOUTHEAST IDAHO


CITY           SKY/WX    TMP DP  RH WIND       PRES   REMARKS
IDAHO FALLS    CLEAR     32  23  69 N6        30.24R WCI  26
POCATELLO      CLEAR     36  27  69 E7        30.22R WCI  30
REXBURG        CLOUDY    32  22  66 E3        30.25R
$$

IDZ006-010-011-018-031-032-021400-
CENTRAL IDAHO MOUNTAINS


CITY           SKY/WX    TMP DP  RH WIND       PRES   REMARKS
MCCALL         CLEAR     34  31  88 CALM      30.18R
HAILEY         CLEAR     36  28  75 NW9       30.24R WCI  29
STANLEY          N/A     26  21  81 CALM      30.27R
SALMON         CLEAR     30  27  86 CALM      30.23R
CHALLIS        CLEAR     35  25  66 CALM      30.23R
$$

IDZ002-004-006-007-026-021400-
NORTHERN IDAHO


CITY           SKY/WX    TMP DP  RH WIND       PRES   REMARKS
LEWISTON       CLEAR     48  45  89 E6        30.09R
LOWELL           N/A     44  41  89 N3        30.18R
COEUR D`ALENE  CLEAR     46  39  76 E7        30.10R
MULLAN PASS    CLEAR     45  29  53 SE9       30.20S
$$



USA.gov is the U.S. government's official web portal to all federal, state and local government web resources and services.